Date String (YYYY-MM-DD hh:mm:ss) UTC,Instrument flags,absolute air pressure of the measurement (hPa),sample flow rate (lpm),inlet stack bypass flow (lpm),air temperature of the measurement (°C),ambient temperature measured by the external sensor (°C),aerosol sample conditioner tube jacket temperature (°C),OPC LED temperature (°C),internal box temperature (°C),relative humidity of the measurement (%),span deviation,mass concentration of particles derived from Lorenz-Mie calculation of OPC scattering (μg/m³),mass concentration of particles derived from Lorenz-Mie calculation of OPC scattering (μg/m³),mass concentration of particles derived from Lorenz-Mie calculation of OPC scattering (μg/m³)
DateTimeUTC,F1_M11,P_M11,Q1_M11,Q2_M11,T1_M11,T2_M11,T3_M11,T4_M11,T5_M11,U1_M11,ZSPAN_M11,X0_M11,X2_M11,X1_M11
2023-07-29 09:00:00,SystemResetWarning,0835.9,5.00,000.00,029.3,027.9,000.0,037.8,031.0,27.6,0000.0,0010.80,0004.84,0004.06
2023-07-29 09:01:00,SystemResetWarning,0835.9,4.99,000.00,029.4,028.0,000.0,037.8,031.0,27.8,0000.0,0010.65,0004.80,0004.05
2023-07-29 09:02:00,SystemResetWarning,0835.9,5.01,000.00,029.4,028.1,000.0,037.8,031.0,27.5,0000.0,0010.58,0004.78,0004.04
2023-07-29 09:03:00,SystemResetWarning,0835.9,5.01,000.00,029.4,028.2,000.0,037.8,031.1,27.3,0000.0,0010.34,0004.72,0004.02
2023-07-29 09:04:00,SystemResetWarning,0835.9,5.00,000.00,029.5,028.3,000.0,037.8,031.1,27.1,0000.0,0009.51,0004.68,0004.01
2023-07-29 09:05:00,SystemResetWarning,0835.9,4.99,000.00,029.5,028.3,000.0,037.9,031.1,27.1,0000.0,0009.46,0004.66,0004.00
2023-07-29 09:06:00,SystemResetWarning,0835.9,4.99,000.00,029.5,028.4,000.0,037.9,031.2,27.1,0000.0,0009.22,0004.66,0004.01
2023-07-29 09:07:00,SystemResetWarning,0835.9,4.99,000.00,029.5,028.4,000.0,037.9,031.2,26.8,0000.0,0009.12,0004.68,0004.02
2023-07-29 09:08:00,SystemResetWarning,0835.9,5.00,000.00,029.6,028.4,000.0,037.9,031.2,26.7,0000.0,0009.12,0004.69,0004.02
2023-07-29 09:09:00,SystemResetWarning,0835.9,5.01,000.00,029.6,028.5,000.0,037.9,031.2,26.6,0000.0,0008.89,0004.69,0004.02
2023-07-29 09:10:00,SystemResetWarning,0835.9,5.01,000.00,029.6,028.5,000.0,038.0,031.3,26.5,0000.0,0008.82,0004.66,0004.02
2023-07-29 09:11:00,SystemResetWarning,0835.9,5.00,000.00,029.6,028.2,000.0,038.0,031.3,26.4,0000.0,0008.81,0004.66,0004.03
2023-07-29 09:12:00,SystemResetWarning,0835.9,4.98,000.00,029.6,026.3,000.0,037.9,031.0,26.5,0000.0,0008.83,0004.66,0004.03
2023-07-29 09:13:00,SystemResetWarning,0835.8,5.02,000.00,029.5,025.3,000.0,037.8,030.8,26.6,0000.0,0009.21,0004.68,0004.02
2023-07-29 09:14:00,SystemResetWarning,0835.8,5.00,000.00,029.4,025.3,000.0,037.8,030.5,26.8,0000.0,0009.26,0004.69,0004.03
2023-07-29 09:15:00,SystemResetWarning,0835.9,4.99,000.00,029.3,025.6,000.0,037.8,030.5,26.8,0000.0,0009.32,0004.72,0004.04
2023-07-29 09:16:00,SystemResetWarning,0835.9,5.02,000.00,029.3,026.0,000.0,037.8,030.6,27.0,0000.0,0009.14,0004.77,0004.05
2023-07-29 09:17:00,SystemResetWarning,0835.9,5.00,000.00,029.3,026.4,000.0,037.8,030.7,27.0,0000.0,0009.05,0004.77,0004.05
2023-07-29 09:18:00,SystemResetWarning,0835.9,4.99,000.00,029.2,026.8,000.0,037.8,030.7,27.1,0000.0,0009.40,0004.77,0004.06
2023-07-29 09:19:00,SystemResetWarning,0835.9,4.99,000.00,029.3,027.1,000.0,037.8,030.8,27.2,0000.0,0009.63,0004.76,0004.05
2023-07-29 09:20:00,SystemResetWarning,0836.0,5.00,000.00,029.3,027.3,000.0,037.8,030.8,27.6,0000.0,0009.47,0004.75,0004.05
2023-07-29 09:21:00,SystemResetWarning,0836.0,5.00,000.00,029.3,027.5,000.0,037.8,030.9,27.9,0000.0,0009.75,0004.80,0004.05
2023-07-29 09:22:00,SystemResetWarning,0836.0,5.00,000.00,029.3,027.7,000.0,037.8,030.9,28.0,0000.0,0009.99,0004.83,0004.04
2023-07-29 09:23:00,SystemResetWarning,0836.0,5.00,000.00,029.3,027.8,000.0,037.8,030.9,28.5,0000.0,0009.86,0004.78,0004.03
2023-07-29 09:24:00,SystemResetWarning,0836.0,5.00,000.00,029.4,027.9,000.0,037.8,031.0,28.1,0000.0,0009.41,0004.73,0004.03
2023-07-29 09:25:00,SystemResetWarning,0836.0,5.01,000.00,029.4,028.0,000.0,037.8,031.0,27.6,0000.0,0009.45,0004.73,0004.02
2023-07-29 09:26:00,SystemResetWarning,0836.0,5.01,000.00,029.4,028.1,000.0,037.8,031.0,27.3,0000.0,0009.55,0004.76,0004.02
2023-07-29 09:27:00,SystemResetWarning,0835.9,5.00,000.00,029.4,028.2,000.0,037.8,031.0,28.4,0000.0,0009.80,0004.73,0004.02
2023-07-29 09:28:00,SystemResetWarning,0835.9,5.00,000.00,029.5,028.2,000.0,037.9,031.1,28.5,0000.0,0009.73,0004.69,0003.99
2023-07-29 09:29:00,SystemResetWarning,0835.9,5.00,000.00,029.5,028.3,000.0,037.9,031.1,28.3,0000.0,0009.32,0004.68,0003.98
2023-07-29 09:30:00,SystemResetWarning,0835.9,5.00,000.00,029.5,028.3,000.0,037.9,031.1,27.9,0000.0,0008.95,0004.67,0003.97
2023-07-29 09:31:00,SystemResetWarning,0835.9,5.00,000.00,029.5,028.4,000.0,037.9,031.2,28.5,0000.0,0008.93,0004.68,0003.97
2023-07-29 09:32:00,SystemResetWarning,0835.9,5.00,000.00,029.6,028.4,000.0,037.9,031.2,27.6,0000.0,0008.77,0004.65,0003.97
2023-07-29 09:33:00,SystemResetWarning,0835.9,5.00,000.00,029.6,028.4,000.0,038.0,031.2,27.5,0000.0,0008.42,0004.62,0003.97
2023-07-29 09:34:00,SystemResetWarning,0835.9,5.00,000.00,029.6,028.5,000.0,038.0,031.2,27.6,0000.0,0008.55,0004.66,0003.98
2023-07-29 09:35:00,SystemResetWarning,0835.9,5.00,000.00,029.6,028.5,000.0,038.0,031.3,27.4,0000.0,0008.73,0004.73,0003.99
2023-07-29 09:36:00,SystemResetWarning,0835.9,5.00,000.00,029.7,028.5,000.0,038.0,031.3,27.5,0000.0,0008.68,0004.73,0004.00
2023-07-29 09:37:00,SystemResetWarning,0835.9,5.01,000.00,029.7,028.5,000.0,038.0,031.3,27.6,0000.0,0008.61,0004.72,0004.00
2023-07-29 09:38:00,SystemResetWarning,0835.9,5.01,000.00,029.7,028.5,000.0,038.1,031.3,27.6,0000.0,0008.32,0004.74,0004.03
2023-07-29 09:39:00,SystemResetWarning,0835.9,5.00,000.00,029.7,028.5,000.0,038.1,031.3,27.7,0000.0,0008.96,0004.79,0004.07
2023-07-29 09:40:00,SystemResetWarning,0835.9,5.00,000.00,029.7,027.9,000.0,038.1,031.3,28.0,0000.0,0009.07,0004.84,0004.10
2023-07-29 09:41:00,SystemResetWarning,0835.9,4.99,000.00,029.7,026.0,000.0,037.9,031.0,28.2,0000.0,0009.80,0004.89,0004.14
2023-07-29 09:42:00,SystemResetWarning,0835.8,5.00,000.00,029.6,025.2,000.0,037.9,030.8,28.5,0000.0,0010.58,0004.93,0004.16
2023-07-29 09:43:00,SystemResetWarning,0835.8,5.01,000.00,029.4,025.3,000.0,037.9,030.5,29.3,0000.0,0010.52,0004.93,0004.17
2023-07-29 09:44:00,SystemResetWarning,0835.8,5.00,000.00,029.3,025.7,000.0,037.9,030.5,29.7,0000.0,0011.09,0004.98,0004.19
2023-07-29 09:45:00,SystemResetWarning,0835.8,4.99,000.00,029.3,026.1,000.0,037.9,030.6,29.5,0000.0,0011.43,0005.07,0004.21
2023-07-29 09:46:00,SystemResetWarning,0835.8,5.00,000.00,029.3,026.5,000.0,037.9,030.7,28.5,0000.0,0011.50,0005.11,0004.24
2023-07-29 09:47:00,SystemResetWarning,0835.8,5.00,000.00,029.3,026.8,000.0,037.9,030.7,28.4,0000.0,0011.91,0005.14,0004.27
2023-07-29 09:48:00,SystemResetWarning,0835.8,5.00,000.00,029.3,027.0,000.0,037.9,030.7,28.4,0000.0,0012.22,0005.14,0004.28
2023-07-29 09:49:00,SystemResetWarning,0835.9,4.99,000.00,029.3,027.3,000.0,037.8,030.8,28.4,0000.0,0012.61,0005.17,0004.30
2023-07-29 09:50:00,SystemResetWarning,0835.9,5.00,000.00,029.3,027.4,000.0,037.8,030.8,28.2,0000.0,0012.26,0005.17,0004.29
2023-07-29 09:51:00,SystemResetWarning,0835.9,5.01,000.00,029.3,027.6,000.0,037.8,030.9,28.1,0000.0,0012.06,0005.16,0004.28
2023-07-29 09:52:00,SystemResetWarning,0835.9,5.01,000.00,029.3,027.7,000.0,037.8,030.9,28.0,0000.0,0011.71,0005.13,0004.27
2023-07-29 09:53:00,SystemResetWarning,0835.9,4.99,000.00,029.3,027.8,000.0,037.8,030.9,27.9,0000.0,0011.33,0005.11,0004.26
2023-07-29 09:54:00,SystemResetWarning,0835.9,4.99,000.00,029.4,027.9,000.0,037.8,030.9,28.0,0000.0,0011.71,0005.16,0004.26
2023-07-29 09:55:00,SystemResetWarning,0835.9,5.01,000.00,029.4,027.9,000.0,037.9,031.0,28.2,0000.0,0012.04,0005.22,0004.27
2023-07-29 09:56:00,SystemResetWarning,0835.9,5.01,000.00,029.4,028.0,000.0,037.9,031.0,28.3,0000.0,0012.07,0005.20,0004.27
2023-07-29 09:57:00,SystemResetWarning,0835.8,5.00,000.00,029.4,028.0,000.0,037.9,031.0,28.6,0000.0,0012.72,0005.23,0004.27
2023-07-29 09:58:00,SystemResetWarning,0835.8,5.00,000.00,029.4,028.1,000.0,037.9,031.0,28.9,0000.0,0013.37,0005.28,0004.27
2023-07-29 09:59:00,SystemResetWarning,0835.8,4.99,000.00,029.5,028.1,000.0,037.9,031.1,28.5,0000.0,0013.48,0005.37,0004.28
